Find Kosmos-796

NORAD ID: 8612 Int'l Des: 1976-008 Owner: GUKOSR Country: SU operational
LEOCIRCULAR

实时位置

正在加载3D地球...

关于 Kosmos-796

正在加载描述...

即将过境

Passes for default location (London). Set your location on the main map for personalized predictions.

高度历史

Loading altitude history...

两行轨道根数

1 8612U 76008F 26105.83331376 -.00000029 00000-0 -98474-4 0 9995
2 8612 74.0579 34.8359 0028067 304.6489 111.7117 12.43167684278794
Epoch: Apr 15, 2026 • Age: 15 hours

当前状态

高度 1490.8 km
速度 7.13 km/s
星下点 -51.89°S, 5.38°E
类型 other

Most Searched